Overall — Rattlesnake - Morning
Saturday 28 September 2024 · 181 finishers across every class · 5 laps for the winner
| Pos | No. | Rider | Class | Laps | Time | Behind | Int | Pace |
|---|---|---|---|---|---|---|---|---|
| 1 | #10L | BURTON, AUSTIN | 200 C | 5 | 1:27:40 | — | 0:00 | 17:32 |
| 2 | #15L | WESTON, BODIE | 200 C | 5 | 1:29:00 | +1:20 | 1:20 | 17:48 |
| 3 | #25L | HERTZLER, NOAH | 200 C | 5 | 1:30:51 | +3:11 | 1:51 | 18:10 |
| 4 | #14F | ROUNTREE, CODY | 4STK C | 5 | 1:30:56 | +3:16 | 0:05 | 18:11 |
| 5 | #61L | MILLER, JACOB | 200 C | 5 | 1:31:44 | +4:04 | 0:48 | 18:20 |
| 6 | #67L | BONANNO, ADIN | 200 C | 5 | 1:31:53 | +4:13 | 0:09 | 18:22 |
| 7 | #69A | WILEY, DAVID | 55+ A | 5 | 1:32:04 | +4:24 | 0:11 | 18:24 |
| 8 | #66F | SAWYERS, EASTON | 4STK C | 5 | 1:32:21 | +4:41 | 0:17 | 18:28 |
| 9 | #26L | TESTER, JAMISON | 200 C | 5 | 1:32:25 | +4:45 | 0:04 | 18:29 |
| 10 | #74A | SHEARIN, JEFFREY | 55+ A | 5 | 1:32:31 | +4:51 | 0:06 | 18:30 |
| 11 | #11X | SHEETS, LILLEY | EXP WOMEN | 5 | 1:33:06 | +5:26 | 0:35 | 18:37 |
| 12 | #79H | CHILDS, JASON | 250 C | 5 | 1:33:20 | +5:40 | 0:14 | 18:40 |
| 13 | #21L | WIGGINS, MADDIX | 200 C | 5 | 1:33:24 | +5:44 | 0:04 | 18:40 |
| 14 | #16L | CLINEDINST, LAIRD | 200 C | 5 | 1:33:39 | +5:59 | 0:15 | 18:43 |
| 15 | #70H | STIMPSON, JUSTIN | 250 C | 5 | 1:33:44 | +6:04 | 0:05 | 18:44 |
| 16 | #42L | COLLINS, JAXON | 200 C | 5 | 1:33:59 | +6:19 | 0:15 | 18:47 |
| 17 | #36L | WALTERS, DALTON | 200 C | 5 | 1:34:17 | +6:37 | 0:18 | 18:51 |
| 18 | #44L | GEARHART, CADENCE | 200 C | 5 | 1:34:41 | +7:01 | 0:24 | 18:56 |
| 19 | #50L | CACERES, AIDEN | 200 C | 5 | 1:34:41 | +7:01 | 0:00 | 18:56 |
| 20 | #71F | HARDY, ZANE | 4STK C | 5 | 1:35:10 | +7:30 | 0:29 | 19:02 |
| 21 | #37H | SEARS, LANDON | 250 C | 5 | 1:35:20 | +7:40 | 0:10 | 19:04 |
| 22 | #51L | RICE, DANE | 200 C | 5 | 1:35:24 | +7:44 | 0:04 | 19:04 |
| 23 | #39L | CHRIMES, CHASE | 200 C | 5 | 1:35:27 | +7:47 | 0:03 | 19:05 |
| 24 | #29H | ELLIS, NATE | 250 C | 5 | 1:35:32 | +7:52 | 0:05 | 19:06 |
| 25 | #124Q | GALBRAITH, WILLIAM | TRAILRIDER | 5 | 1:35:51 | +8:11 | 0:19 | 19:10 |
| 26 | #4U | BALDWIN, DAVID | 60+ ELITE | 5 | 1:35:53 | +8:13 | 0:02 | 19:10 |
| 27 | #90B | LEE, JOHN | 55+ B | 5 | 1:35:53 | +8:13 | 0:00 | 19:10 |
| 28 | #96X | HARDMAN, LOGAN | EXP WOMEN | 5 | 1:36:10 | +8:30 | 0:17 | 19:14 |
| 29 | #99A | EFFORD, JOHN | 55+ A | 5 | 1:36:16 | +8:36 | 0:06 | 19:15 |
| 30 | #51T | PURPURA, DAVID | 50+ C | 5 | 1:36:24 | +8:44 | 0:08 | 19:16 |
| 31 | #1U | ASHLEY, TOM | 60+ ELITE | 5 | 1:36:29 | +8:49 | 0:05 | 19:17 |
| 32 | #11F | BRYAN, LATHAN | 4STK C | 5 | 1:36:35 | +8:55 | 0:06 | 19:19 |
| 33 | #18L | MOUNTS, RILEY | 200 C | 5 | 1:36:49 | +9:09 | 0:14 | 19:21 |
| 34 | #98B | GREEN, JEFF | 55+ B | 5 | 1:37:06 | +9:26 | 0:17 | 19:25 |
| 35 | #93B | OTOOLE, KEITH | 55+ B | 5 | 1:38:15 | +10:35 | 1:09 | 19:39 |
| 36 | #25J | HOOPER, JAMES | 30+ C | 5 | 1:38:15 | +10:35 | 0:00 | 19:39 |
| 37 | #55H | ROSS, JOHN | 250 C | 5 | 1:38:20 | +10:40 | 0:05 | 19:40 |
| 38 | #89H | LAYMAN, RYAN | 250 C | 5 | 1:38:28 | +10:48 | 0:08 | 19:41 |
| 39 | #42H | THURSTON, JACKSON | 250 C | 5 | 1:38:32 | +10:52 | 0:04 | 19:42 |
| 40 | #10J | MARSH, JOSEPH | 30+ C | 5 | 1:38:39 | +10:59 | 0:07 | 19:43 |
| 41 | #32L | CALLOW, CAMRON | 200 C | 5 | 1:38:44 | +11:04 | 0:05 | 19:44 |
| 42 | #36F | HOLTGRIEVE, JACKSON | 4STK C | 5 | 1:38:56 | +11:16 | 0:12 | 19:47 |
| 43 | #12J | BURKHOLDER, BRIAN | 30+ C | 5 | 1:38:56 | +11:16 | 0:00 | 19:47 |
| 44 | #34J | KNISS, SAMUEL | 30+ C | 5 | 1:39:03 | +11:23 | 0:07 | 19:48 |
| 45 | #50Q | JOHNSON, LUCAS | TRAILRIDER | 5 | 1:39:05 | +11:25 | 0:02 | 19:49 |
| 46 | #16F | SMITH, HUNTER | 4STK C | 5 | 1:39:07 | +11:27 | 0:02 | 19:49 |
| 47 | #46J | WICKS, ANDREW | 30+ C | 5 | 1:39:14 | +11:34 | 0:07 | 19:50 |
| 48 | #71P | MILLS, BRANDON | 40+ C | 5 | 1:39:29 | +11:49 | 0:15 | 19:53 |
| 49 | #17S | HITE, SPENCER | 45+ C | 5 | 1:39:47 | +12:07 | 0:18 | 19:57 |
| 50 | #52U | HAMILTON, NEAL | 60+ ELITE | 5 | 1:40:13 | +12:33 | 0:26 | 20:02 |
| 51 | #31LZ | COLLINS, CHRISTIAN | 200 C | 5 | 1:40:53 | +13:13 | 0:40 | 20:10 |
| 52 | #127Q | FOUTZ, KELLEN | TRAILRIDER | 5 | 1:40:55 | +13:15 | 0:02 | 20:11 |
| 53 | #3V | LESLIE, MICHAEL | 35+ C | 5 | 1:40:59 | +13:19 | 0:04 | 20:11 |
| 54 | #71J | MCKEE, KYLE | 30+ C | 5 | 1:41:20 | +13:40 | 0:21 | 20:16 |
| 55 | #6P | WALKER, STEVEN | 40+ C | 5 | 1:41:25 | +13:45 | 0:05 | 20:17 |
| 56 | #54H | WILSON, CHASE | 250 C | 5 | 1:41:26 | +13:46 | 0:01 | 20:17 |
| 57 | #31P | HELBERT, LYLE | 40+ C | 5 | 1:42:16 | +14:36 | 0:50 | 20:27 |
| 58 | #35J | FAIN, JAMIE | 30+ C | 5 | 1:42:42 | +15:02 | 0:26 | 20:32 |
| 59 | #34H | WEEKS, GRAYSON | 250 C | 5 | 1:42:44 | +15:04 | 0:02 | 20:32 |
| 60 | #72P | EPPS, STEVEN | 40+ C | 5 | 1:42:44 | +15:04 | 0:00 | 20:32 |
| 61 | #52X | WATTS, RACHEL | EXP WOMEN | 5 | 1:42:49 | +15:09 | 0:05 | 20:33 |
| 62 | #29J | HENDRICK, WILLIAM | 30+ C | 5 | 1:43:04 | +15:24 | 0:15 | 20:36 |
| 63 | #22F | CAMILLERI, ERIC | 4STK C | 5 | 1:43:06 | +15:26 | 0:02 | 20:37 |
| 64 | #31F | MOUNTS, HUNTER | 4STK C | 5 | 1:43:08 | +15:28 | 0:02 | 20:37 |
| 65 | #18H | HAMMOCK, JOHN | 250 C | 5 | 1:43:26 | +15:46 | 0:18 | 20:41 |
| 66 | #49J | SWANSON, ZACHARY | 30+ C | 5 | 1:43:27 | +15:47 | 0:01 | 20:41 |
| 67 | #80H | DOVE, TRACE | 250 C | 5 | 1:43:32 | +15:52 | 0:05 | 20:42 |
| 68 | #15F | BAILEY, JOHN | 4STK C | 5 | 1:43:35 | +15:55 | 0:03 | 20:43 |
| 69 | #35FZ | SMITH, GAVIN | 4STK C | 5 | 1:43:57 | +16:17 | 0:22 | 20:47 |
| 70 | #77T | DUVALL, CHRIS | 50+ C | 5 | 1:43:58 | +16:18 | 0:01 | 20:47 |
| 71 | #77L | WALKER, KADYN | 200 C | 5 | 1:44:04 | +16:24 | 0:06 | 20:48 |
| 72 | #78S | SHOWALTER, CLINT | 45+ C | 5 | 1:44:21 | +16:41 | 0:17 | 20:52 |
| 73 | #46S | SHOWALTER, KENNETH | 45+ C | 5 | 1:44:23 | +16:43 | 0:02 | 20:52 |
| 74 | #31H | HAMMOCK, NOAH | 250 C | 5 | 1:45:06 | +17:26 | 0:43 | 21:01 |
| 75 | #13I | AL-AWAM, NETTA | INT WOMEN | 5 | 1:45:06 | +17:26 | 0:00 | 21:01 |
| 76 | #5L | BAKKEN, DASH | 200 C | 5 | 1:45:38 | +17:58 | 0:32 | 21:07 |
| 77 | #56I | SHIFFLETT, MACCENNA | INT WOMEN | 5 | 1:45:41 | +18:01 | 0:03 | 21:08 |
| 78 | #27L | SENTERS, TOBIAH | 200 C | 5 | 1:46:28 | +18:48 | 0:47 | 21:17 |
| 79 | #22H | ZMICK, TRISTAN | 250 C | 5 | 1:47:27 | +19:47 | 0:59 | 21:29 |
| 80 | #29UZ | BORYK, TIM | 60+ ELITE | 5 | 1:47:58 | +20:18 | 0:31 | 21:35 |
| 81 | #16AZ | HUDAK, GARY | 55+ A | 5 | 1:48:03 | +20:23 | 0:05 | 21:36 |
| 82 | #84U | TAYLOR, MICHAEL | 60+ ELITE | 5 | 1:48:40 | +21:00 | 0:37 | 21:44 |
| 83 | #50T | JOHNSON, BRYAN | 50+ C | 5 | 1:52:57 | +25:17 | 4:17 | 22:35 |
| 84 | #58X | SAUNDERS, KYLEE | EXP WOMEN | 4 | 1:18:13 | 1 lap | 0:00 | 19:33 |
| 85 | #42Q | PRIVETT, CONNOR | TRAILRIDER | 4 | 1:21:26 | 1 lap | 3:13 | 20:21 |
| 86 | #9V | WINGO, MICHAEL | 35+ C | 4 | 1:22:47 | 1 lap | 1:21 | 20:41 |
| 87 | #29Q | MARKHAM, KASEN | TRAILRIDER | 4 | 1:23:11 | 1 lap | 0:24 | 20:47 |
| 88 | #1N | REYNOLDS, JOANNA | 30+ WOMEN | 4 | 1:23:27 | 1 lap | 0:16 | 20:51 |
| 89 | #25Q | TORRES, TRISTIN | TRAILRIDER | 4 | 1:24:25 | 1 lap | 0:58 | 21:06 |
| 90 | #85G | EDMONDSON, CHUCK | 60+ C | 4 | 1:25:08 | 1 lap | 0:43 | 21:17 |
| 91 | #2J | OVERSTREET, JOSEPH | 30+ C | 4 | 1:25:42 | 1 lap | 0:34 | 21:25 |
| 92 | #12Q | SHANNON, PARKER | TRAILRIDER | 4 | 1:25:59 | 1 lap | 0:17 | 21:29 |
| 93 | #188Q | ATWELL, JIM | TRAILRIDER | 4 | 1:26:03 | 1 lap | 0:04 | 21:30 |
| 94 | #63PZ | BERRY, DANIEL | 40+ C | 4 | 1:26:14 | 1 lap | 0:11 | 21:33 |
| 95 | #76HZ | SHORTT, PATRICK | 250 C | 4 | 1:27:25 | 1 lap | 1:11 | 21:51 |
| 96 | #134Q | McGrath, Joe | TRAILRIDER | 4 | 1:27:36 | 1 lap | 0:11 | 21:54 |
| 97 | #72T | HARIG, JEFF | 50+ C | 4 | 1:27:38 | 1 lap | 0:02 | 21:54 |
| 98 | #88JZ | BOWES, AARON | 30+ C | 4 | 1:27:51 | 1 lap | 0:13 | 21:57 |
| 99 | #53Q | GALBRAITH, DENNIS | TRAILRIDER | 4 | 1:28:10 | 1 lap | 0:19 | 22:02 |
| 100 | #169Q | LILLY, WYATT | TRAILRIDER | 4 | 1:28:46 | 1 lap | 0:36 | 22:11 |
| 101 | #11B | COLLINS, RONALD | 55+ B | 4 | 1:28:48 | 1 lap | 0:02 | 22:12 |
| 102 | #87S | KERN, CHRISTOPHER | 45+ C | 4 | 1:29:05 | 1 lap | 0:17 | 22:16 |
| 103 | #6R | TUNNEY, ROBERT | 55+ C | 4 | 1:29:23 | 1 lap | 0:18 | 22:20 |
| 104 | #23R | SEARS, TOM | 55+ C | 4 | 1:29:24 | 1 lap | 0:01 | 22:21 |
| 105 | #39H | MAYO, DUSTIN | 250 C | 4 | 1:29:30 | 1 lap | 0:06 | 22:22 |
| 106 | #7R | CONDREY, STEPHEN | 55+ C | 4 | 1:29:43 | 1 lap | 0:13 | 22:25 |
| 107 | #68U | COWAN, WHITNEY | 60+ ELITE | 4 | 1:29:48 | 1 lap | 0:05 | 22:27 |
| 108 | #8FZ | JOLLAY, Ben | 4STK C | 4 | 1:29:56 | 1 lap | 0:08 | 22:29 |
| 109 | #69G | WETHERALD, RICH | 60+ C | 4 | 1:29:58 | 1 lap | 0:02 | 22:29 |
| 110 | #5G | IRELAN, FRANK | 60+ C | 4 | 1:30:04 | 1 lap | 0:06 | 22:31 |
| 111 | #74P | LOVE, TIMOTHY | 40+ C | 4 | 1:30:58 | 1 lap | 0:54 | 22:44 |
| 112 | #5FZ | JOLLAY, LUKE | 4STK C | 4 | 1:31:02 | 1 lap | 0:04 | 22:45 |
| 113 | #29P | FINNEGAN, PATRICK | 40+ C | 4 | 1:31:07 | 1 lap | 0:05 | 22:46 |
| 114 | #98H | WITT, STEPHEN | 250 C | 4 | 1:31:30 | 1 lap | 0:23 | 22:52 |
| 115 | #10I | THOMAS, MICHELLE | INT WOMEN | 4 | 1:32:14 | 1 lap | 0:44 | 23:03 |
| 116 | #8I | CLEVENSTINE, STACEY | INT WOMEN | 4 | 1:32:49 | 1 lap | 0:35 | 23:12 |
| 117 | #12S | CLINEDINST, ERIC | 45+ C | 4 | 1:33:42 | 1 lap | 0:53 | 23:25 |
| 118 | #9J | MOBLEY, JONATHON | 30+ C | 4 | 1:35:02 | 1 lap | 1:20 | 23:45 |
| 119 | #129Q | Wolford, Michael | TRAILRIDER | 4 | 1:35:06 | 1 lap | 0:04 | 23:46 |
| 120 | #37Q | SPROUSE, COLBY | TRAILRIDER | 4 | 1:35:08 | 1 lap | 0:02 | 23:47 |
| 121 | #62Q | RITTER, JAMIE | TRAILRIDER | 4 | 1:35:09 | 1 lap | 0:01 | 23:47 |
| 122 | #137Q | Corvin, Jesse | TRAILRIDER | 4 | 1:35:12 | 1 lap | 0:03 | 23:48 |
| 123 | #55L | RAFFERTY, BRAEDON | 200 C | 4 | 1:35:15 | 1 lap | 0:03 | 23:48 |
| 124 | #17UZ | MORAN, Ronnie | 60+ ELITE | 4 | 1:35:39 | 1 lap | 0:24 | 23:54 |
| 125 | #19P | BLAND, JOSH | 40+ C | 4 | 1:35:41 | 1 lap | 0:02 | 23:55 |
| 126 | #20Q | MCGUFFIN, DENNIS | TRAILRIDER | 4 | 1:37:21 | 1 lap | 1:40 | 24:20 |
| 127 | #108Q | SMITH, JAYTIN | TRAILRIDER | 4 | 1:37:41 | 1 lap | 0:20 | 24:25 |
| 128 | #96PZ | SHUMATE, SAMUEL | 40+ C | 4 | 1:38:08 | 1 lap | 0:27 | 24:32 |
| 129 | #48S | HELMS, KRIS | 45+ C | 4 | 1:38:13 | 1 lap | 0:05 | 24:33 |
| 130 | #7T | RAFFERTY, TERRENCE | 50+ C | 4 | 1:38:58 | 1 lap | 0:45 | 24:44 |
| 131 | #95Q | MARKHAM, GUNNER | TRAILRIDER | 4 | 1:39:29 | 1 lap | 0:31 | 24:52 |
| 132 | #138Q | MOBLEY, BRANDON | TRAILRIDER | 4 | 1:40:02 | 1 lap | 0:33 | 25:00 |
| 133 | #12G | SIMPSON, THOMAS | 60+ C | 4 | 1:40:34 | 1 lap | 0:32 | 25:08 |
| 134 | #35Q | FAIN, JACKSON | TRAILRIDER | 4 | 1:42:21 | 1 lap | 1:47 | 25:35 |
| 135 | #20W | JACOBS, PEYTON | NOV WOMEN | 4 | 1:42:24 | 1 lap | 0:03 | 25:36 |
| 136 | #2U | PUCKETT, ROGER | 60+ ELITE | 4 | 1:43:18 | 1 lap | 0:54 | 25:49 |
| 137 | #29W | BAILEY, TIFFANY | NOV WOMEN | 4 | 1:45:38 | 1 lap | 2:20 | 26:24 |
| 138 | #64T | COX, JR., HARLEY | 50+ C | 4 | 1:46:44 | 1 lap | 1:06 | 26:41 |
| 139 | #30L | OLEARY, ASHTON | 200 C | 3 | 53:56 | 2 laps | 0:00 | 17:58 |
| 140 | #24H | HELMS, CALEB | 250 C | 3 | 1:02:17 | 2 laps | 8:21 | 20:45 |
| 141 | #27Q | KERN, QUENTIN | TRAILRIDER | 3 | 1:07:59 | 2 laps | 5:42 | 22:39 |
| 142 | #84J | WRIGHT, DEXTER | 30+ C | 3 | 1:08:11 | 2 laps | 0:12 | 22:43 |
| 143 | #124HZ | OSBORNE, AUSTIN | 250 C | 3 | 1:08:25 | 2 laps | 0:14 | 22:48 |
| 144 | #105Q | WHALEY, SCOTT | TRAILRIDER | 3 | 1:08:42 | 2 laps | 0:17 | 22:54 |
| 145 | #77F | SALYER, BLAKE | 4STK C | 3 | 1:11:19 | 2 laps | 2:37 | 23:46 |
| 146 | #52T | REYNOLDS, PATRICK | 50+ C | 3 | 1:20:12 | 2 laps | 8:53 | 26:44 |
| 147 | #82Q | MATHENY, TRAVIS | TRAILRIDER | 3 | 1:22:47 | 2 laps | 2:35 | 27:35 |
| 148 | #36Q | MATHENY, SAWYER | TRAILRIDER | 3 | 1:23:54 | 2 laps | 1:07 | 27:58 |
| 149 | #1M | DUSKY, LORELLE | 45+ WOMEN | 3 | 1:25:37 | 2 laps | 1:43 | 28:32 |
| 150 | #46M | CACCAMO, SHERI | 45+ WOMEN | 3 | 1:27:11 | 2 laps | 1:34 | 29:03 |
| 151 | #99G | LEWIS, TOM | 60+ C | 3 | 1:27:22 | 2 laps | 0:11 | 29:07 |
| 152 | #23S | SENTERS, JASON | 45+ C | 3 | 1:27:53 | 2 laps | 0:31 | 29:17 |
| 153 | #15Q | KUEBLER, CADEN | TRAILRIDER | 3 | 1:30:40 | 2 laps | 2:47 | 30:13 |
| 154 | #6N | SIMON, AMY | 30+ WOMEN | 3 | 1:31:10 | 2 laps | 0:30 | 30:23 |
| 155 | #130Q | RAFFERTY, LUKE | TRAILRIDER | 3 | 1:32:53 | 2 laps | 1:43 | 30:57 |
| 156 | #61Q | TOMLINSON, CHASE | TRAILRIDER | 3 | 1:37:48 | 2 laps | 4:55 | 32:36 |
| 157 | #55M | KUEBLER, CHARITY | 45+ WOMEN | 3 | 1:38:26 | 2 laps | 0:38 | 32:48 |
| 158 | #57M | GABRIELE, KIMBERLY | 45+ WOMEN | 3 | 1:48:00 | 2 laps | 9:34 | 36:00 |
| 159 | #48G | CALLOW, GARY | 60+ C | 3 | 1:54:27 | 2 laps | 6:27 | 38:09 |
| 160 | #58W | LOHR, CAROLINE | NOV WOMEN | 3 | 1:55:14 | 2 laps | 0:47 | 38:24 |
| 161 | #22R | CAMPBELL, DAVID | 55+ C | 2 | 47:48 | 3 laps | 0:00 | 23:54 |
| 162 | #55I | CRAWFORD, JEANINE | INT WOMEN | 2 | 53:05 | 3 laps | 5:17 | 26:32 |
| 163 | #57L | REYNOLDS, LUCAS | 200 C | 2 | 55:58 | 3 laps | 2:53 | 27:59 |
| 164 | #167Q | ENGLAND, DYLAN | TRAILRIDER | 2 | 1:01:49 | 3 laps | 5:51 | 30:54 |
| 165 | #132Q | Matheny, Blake | TRAILRIDER | 2 | 1:06:17 | 3 laps | 4:28 | 33:08 |
| 166 | #107Q | SMITH, AYDEN | TRAILRIDER | 2 | 1:08:09 | 3 laps | 1:52 | 34:04 |
| 167 | #125Q | STURGILL, MARCUS | TRAILRIDER | 2 | 1:16:29 | 3 laps | 8:20 | 38:14 |
| 168 | #131Q | Tolley, Zach | TRAILRIDER | 2 | 1:37:43 | 3 laps | 21:14 | 48:51 |
| 169 | #2E | JACOBS, COREY | OPEN ELEC | 1 | 22:05 | 4 laps | 0:00 | 22:05 |
| 170 | #44Q | DILLON, CHRISTOPHER | TRAILRIDER | 1 | 24:02 | 4 laps | 1:57 | 24:02 |
| 171 | #21W | MCGUFFIN, SARAH | NOV WOMEN | 1 | 35:09 | 4 laps | 11:07 | 35:09 |
| 172 | #133Q | JOLLAY, BRYAN | TRAILRIDER | 1 | 35:50 | 4 laps | 0:41 | 35:50 |
| 173 | #39Q | LINVILLE, RYAN | TRAILRIDER | 1 | 37:53 | 4 laps | 2:03 | 37:53 |
| 174 | #116Q | CALLOW, RICKY | TRAILRIDER | 1 | 39:01 | 4 laps | 1:08 | 39:01 |
| 175 | #44M | GRINDSTAFF, CHARMAIN | 45+ WOMEN | 1 | 42:54 | 4 laps | 3:53 | 42:54 |
| 176 | #72H | MILLER, BRAYDEN | 250 C | 1 | 45:57 | 4 laps | 3:03 | 45:57 |
| 177 | #113Q | ALLMAN, DAVID | TRAILRIDER | 1 | 50:24 | 4 laps | 4:27 | 50:24 |
| 178 | #128Q | MONTEY, GARY | TRAILRIDER | 1 | 53:02 | 4 laps | 2:38 | 53:02 |
| 179 | #53T | SHOLES, JONATHAN | 50+ C | 1 | 1:07:52 | 4 laps | 14:50 | 1:07:52 |
| 180 | #69F | SHOLES, ETHAN | 4STK C | 1 | 1:10:54 | 4 laps | 3:02 | 1:10:54 |
| 181 | #37L | HUTCHISON, NICK | 200 C | 1 | 1:21:45 | 4 laps | 10:51 | 1:21:45 |
Ranked the way the series ranks: most laps first, then least time. Behind is the deficit to the winner and is only shown where the lap count matches, because elapsed time says nothing across different lap counts — a rider a lap down shows the laps instead. Int is the gap to the rider immediately ahead.